This demonstration page uses our WeatherBlox Daily Observations layout. Learn more.

38.89511, -77.03637

Hourly Observations for January 8, 2015

Temp ( °F °C ) Dew Point ( °F °C ) Humidity (%) Winds ( mph kmh ) Pressure ( in mb ) Visibility ( mi km ) Precip ( " mm )
12:52 am 00:52 Mostly Clear 14 -10 -7 -21.7 38 38 NW 13 20 30.51 1033 10 16.0934 0 0
1:52 am 01:52 Clear 14 -10 -7 -21.7 38 38 W 7 11 30.52 1034 10 16.0934 0 0
2:52 am 02:52 Clear 13 -10.6 -7 -21.7 40 40 WNW 8 13 30.53 1034 10 16.0934 0 0
3:52 am 03:52 Clear 13 -10.6 -7 -21.7 40 40 WNW 13 20 30.53 1034 10 16.0934 0 0
4:52 am 04:52 Clear 12 -11.1 -7 -21.7 42 42 WNW 9 15 30.55 1035 10 16.0934 0 0
5:52 am 05:52 Clear 12 -11.1 -7 -21.7 42 42 W 8 13 30.57 1035 10 16.0934 0 0
6:52 am 06:52 Clear 12 -11.1 -8 -22.2 40 40 WNW 7 11 30.58 1035 10 16.0934 0 0
7:52 am 07:52 Sunny 13 -10.6 -7 -21.7 40 40 W 9 15 30.59 1036 10 16.0934 0 0
8:52 am 08:52 Sunny 15 -9.4 -7 -21.7 36 36 W 9 15 30.61 1037 10 16.0934 0 0
9:52 am 09:52 Sunny 17 -8.3 -6 -21.1 35 35 WNW 10 17 30.61 1037 10 16.0934 0 0
10:52 am 10:52 Sunny 18 -7.8 -5 -20.6 35 35 W 12 19 30.58 1036 10 16.0934 0 0
11:52 am 11:52 Sunny 20 -6.7 -6 -21.1 31 31 WNW 12 19 30.56 1035 10 16.0934 0 0
12:52 pm 12:52 Mostly Sunny 21 -6.1 -6 -21.1 30 30 WNW 7 11 30.52 1033 10 16.0934 0 0
1:52 pm 13:52 Partly Cloudy 22 -5.6 -6 -21.1 29 29 WNW 8 13 30.48 1032 10 16.0934 0 0
2:52 pm 14:52 Partly Cloudy 24 -4.4 -4 -20 29 29 W 10 17 30.47 1032 10 16.0934 0 0
3:52 pm 15:52 Partly Cloudy 24 -4.4 -4 -20 29 29 W 7 11 30.45 1031 10 16.0934 0 0
4:52 pm 16:52 Mostly Cloudy 23 -5 -1 -18.3 35 35 S 9 15 30.43 1031 10 16.0934 0 0
5:52 pm 17:52 Mostly Cloudy 23 -5 -2 -18.9 33 33 SSW 10 17 30.42 1030 10 16.0934 0 0
6:52 pm 18:52 Mostly Cloudy 24 -4.4 -1 -18.3 33 33 S 13 20 30.39 1029 10 16.0934 0 0
7:52 pm 19:52 Cloudy 24 -4.4 2 -16.7 38 38 S 16 26 30.34 1028 10 16.0934 0 0
8:52 pm 20:52 Cloudy 25 -3.9 2 -16.7 37 37 S 17 28 30.33 1027 10 16.0934 0 0
9:52 pm 21:52 Cloudy 25 -3.9 0 -17.8 33 33 S 18 30 30.29 1026 10 16.0934 0 0
10:52 pm 22:52 Cloudy 26 -3.3 2 -16.7 35 35 SSW 22 35 30.26 1025 10 16.0934 0 0
11:52 pm 23:52 Cloudy 26 -3.3 2 -16.7 35 35 SSW 18 30 30.22 1023 10 16.0934 0 0

Powered by AerisWeather